2020-102B (47297 NORAD) Tracking and Keplerian Element Data

This shows tracking and keplerian element data for the satellite.

Feedback or suggestion? Click here.




ElementValue
Catalog47297
Name2020-102B
Epoch Orbit1683
Epoch Day102.15734902
Epoch Year2021
RAAN200.7675
Inclination97.4272
Eccentricity0.0007459
Argument of Perigee134.2793
Mean Anonmoly311.519
Mean Motion15.19485914
Decay Rate8.51E-06
L11 47297U 20102B 21102.15734902 .00000851 00000-0 43302-4 0 9991
L22 47297 97.4272 200.7675 0007459 134.2793 311.5190 15.19485914 16838

Live tracking and technical data element details for 2020-102B (NORAD 47297). 2020-102B can be tracked NOW for your location showing map with azimuth and elevation plus other details from your city location.

Track the satellite on the map from your city or location and see movement details for azimuth, elevation, latitude, longitude, range, height, and movement on the map or in text.







IsCatalogInMostPopularTable: catalog: 47297, numindb: 31
Update: records affected: 1



GetName: 47297 2020-102B

Hit Count: updated at: Tue, 13 Apr 2021 05:11:45 GMT